This is the latest recevied weather packets stored in our database for station/object KD7AWQ. If no packets are shown the sender has not sent any weather packets the latest 10 day(s).
| Time | Temp. | Humidity | Pressure | Rain* | Wind** | Luminosity | Snow |
|---|---|---|---|---|---|---|---|
| 1787867291 | 38.33° C | 15% | 1186.5 hPa | 0 mm | - | 877 W/m² | - |
| 1787866987 | 39.44° C | 14% | 1186.5 hPa | 0 mm | - | 897 W/m² | - |
| 1787866682 | 40° C | 13% | 1186.6 hPa | 0 mm | - | 887 W/m² | - |
| 1787866381 | 40° C | 13% | 1186.6 hPa | 0 mm | - | 909 W/m² | - |
| 1787866075 | 39.44° C | 13% | 1186.6 hPa | 0 mm | - | 914 W/m² | - |
| 1787865770 | 39.44° C | 13% | 1187 hPa | 0 mm | - | 917 W/m² | - |
| 1787865465 | 39.44° C | 14% | 1187.2 hPa | 0 mm | - | 917 W/m² | - |
| 1787865160 | 38.89° C | 14% | 1187.1 hPa | 0 mm | - | 918 W/m² | - |
| 1787864857 | 38.33° C | 14% | 1187 hPa | 0 mm | - | 937 W/m² | - |
| 1787864557 | 37.78° C | 15% | 1187.5 hPa | 0 mm | - | 950 W/m² | - |
| 1787864252 | 37.78° C | 15% | 1187.7 hPa | 0 mm | - | 931 W/m² | - |
| 1787863946 | 37.22° C | 16% | 1187.7 hPa | 0 mm | - | 973 W/m² | - |
| 1787863645 | 37.22° C | 17% | 1187.8 hPa | 0 mm | - | 968 W/m² | - |
| 1787863343 | 37.22° C | 17% | 1187.9 hPa | 0 mm | - | 964 W/m² | - |
| 1787863040 | 37.22° C | 16% | 1187.5 hPa | 0 mm | - | 944 W/m² | - |
| 1787862735 | 37.22° C | 17% | 1187.9 hPa | 0 mm | - | 922 W/m² | - |
| 1787862429 | 37.78° C | 16% | 1188 hPa | 0 mm | - | 1018 W/m² | - |
| 1787862124 | 38.89° C | 16% | 1188.3 hPa | 0 mm | - | 1015 W/m² | - |
| 1787861824 | 38.89° C | 16% | 1188.2 hPa | 0 mm | - | 1025 W/m² | - |
| 1787861522 | 38.33° C | 16% | 1188.4 hPa | 0 mm | - | 1016 W/m² | - |
| 1787861218 | 36.67° C | 17% | 1188.6 hPa | 0 mm | - | 1022 W/m² | - |
| 1787860916 | 36.11° C | 18% | 1188.8 hPa | 0 mm | - | 1025 W/m² | - |
| 1787860611 | 36.67° C | 18% | 1188.7 hPa | 0 mm | - | 1025 W/m² | - |
| 1787860312 | 37.78° C | 17% | 1188.8 hPa | 0 mm | - | 1025 W/m² | - |
| 1787860002 | 37.78° C | 17% | 1189 hPa | 0 mm | - | 1023 W/m² | - |
* Rain latest hour (hover to see other rain measurements)
** Current wind speed in m/s (hover to see current wind gust speed)